Flag for Germany Weather past 2 weeks in Seevetal, Lower Saxony, Germany

Now
55 °F

Clear.


Feels Like: 55 °F
Forecast: 51 / 73 °F
Wind: 2 mph from North

Location: Hamburg-Fuhlsbuettel

Current Time: Aug 2, 2015 at 1:24:04 AM

Latest Report: Aug 2, 2015 at 12:50 AM


Visibility: 10 mi

Pressure: 30.04 "Hg

Humidity: 88%

Dew point: 52 °F

Location of SeevetalLocation

Historic Weather in Seevetal — Graph

°F

Seevetal temperature yesterday

Maximum temperature yesterday: 72 °F (at 4:50 PM)
Minimum temperature yesterday: 45 °F (at 1:50 AM)
Average temperature yesterday: 59 °F

Past Weeks' High & Low Weather Summary

 TemperatureHumidityPressure
High79 °F (Jul 22, 2:20 PM)100% (Jul 18, 6:20 AM)30.09 "Hg (Jul 18, 6:20 AM)
Low45 °F (Aug 1, 1:50 AM)36% (Jul 24, 4:50 PM)29.42 "Hg (Jul 25, 1:20 PM)
Average61 °F77%29.81 "Hg
* Reported Jul 18 12:20 AM — Aug 2 12:20 AM, Seevetal, Weather by CustomWeather, © 2015

Note: Actual official high and low records may vary slightly from our data, if they occured in-between our weather recording intervals... More about our weather records

Advertising

Seevetal weather history for previous 24 hours

 ConditionsComfort  
Time TempWeatherWind HumidityBarometerVisibility
12:20 AM
Sun, Aug 2
57 °FClear.2 mph82%30.04 "Hg10 mi
11:20 PM
Sat, Aug 1
59 °FPassing clouds.3 mph77%30.04 "HgN/A
10:50 PM59 °FPassing clouds.3 mph72%30.04 "HgN/A
10:20 PM59 °FPassing clouds.5 mph72%30.04 "HgN/A
9:50 PM61 °FSunny.6 mph72%30.04 "Hg10 mi
9:20 PM63 °FSunny.8 mph68%30.01 "Hg10 mi
8:50 PM64 °FSunny.9 mph64%30.01 "Hg10 mi
8:20 PM66 °FSunny.9 mph60%30.01 "Hg10 mi
7:50 PM68 °FSunny.12 mph53%30.01 "Hg10 mi
7:20 PM70 °FSunny.6 mph50%30.01 "Hg10 mi
6:50 PM72 °FSunny.3 mph41%30.01 "Hg10 mi
6:20 PM72 °FPassing clouds.6 mph41%30.01 "HgN/A
5:50 PM72 °FPartly sunny.5 mph38%30.01 "HgN/A
5:20 PM70 °FPartly sunny.5 mph40%30.01 "HgN/A
4:50 PM72 °FPartly sunny.6 mph38%30.01 "HgN/A
4:20 PM70 °FPartly sunny.7 mph40%30.01 "HgN/A
3:50 PM70 °FPassing clouds.7 mph40%30.01 "HgN/A
3:20 PM70 °FPartly sunny.7 mph40%30.01 "HgN/A
2:50 PM70 °FPartly sunny.7 mph40%30.04 "HgN/A
2:20 PM68 °FPartly sunny.7 mph43%30.04 "HgN/A
1:50 PM68 °FPartly sunny.6 mph43%30.04 "HgN/A
1:20 PM68 °FPartly sunny.7 mph40%30.04 "HgN/A
12:50 PM66 °FPartly sunny.8 mph46%30.07 "HgN/A
12:20 PM66 °FPartly sunny.8 mph43%30.07 "HgN/A
11:50 AM64 °FPartly sunny.8 mph49%30.07 "HgN/A
11:20 AM64 °FPartly sunny.7 mph56%30.07 "HgN/A
10:50 AM63 °FPassing clouds.8 mph59%30.07 "HgN/A
10:20 AM63 °FPassing clouds.8 mph59%30.07 "HgN/A
9:50 AM59 °FPassing clouds.7 mph63%30.07 "HgN/A
9:20 AM57 °FPassing clouds.7 mph72%30.07 "HgN/A
8:50 AM55 °FPassing clouds.7 mph72%30.07 "HgN/A
8:20 AM54 °FPassing clouds.6 mph77%30.07 "HgN/A
7:50 AM52 °FPassing clouds.6 mph88%30.07 "HgN/A
7:20 AM50 °FPassing clouds.3 mph94%30.07 "HgN/A
6:50 AM46 °FSunny.3 mph100%30.07 "Hg10 mi
6:20 AM45 °FClear.1 mph100%30.09 "Hg10 mi
5:50 AM45 °FClear.1 mph93%30.07 "Hg10 mi
5:20 AM45 °FFog.2 mph93%30.07 "HgN/A
4:50 AM45 °FFog.3 mph93%30.09 "HgN/A
4:20 AM45 °FFog.2 mph100%30.09 "HgN/A
3:50 AM45 °FFog.1 mph100%30.09 "HgN/A
3:20 AM45 °FFog.2 mph100%30.09 "HgN/A
2:50 AM45 °FFog.2 mph100%30.09 "HgN/A
2:20 AM45 °FFog.1 mph93%30.09 "HgN/A
1:50 AM45 °FFog.No wind100%30.09 "HgN/A
1:20 AM46 °FFog.No wind93%30.09 "HgN/A
Weather by CustomWeather, © 2015

See weather overviewHow to use our weather pages